Regional Weather Roundup
Issued by NWS

Home | Current Version | Previous Version | Graphics & Text | Print | Product List | Glossary On
Versions: 1 2 3 4 5 6 7 8 9 10 11 12 13 14 15 16 17 18 19 20 21 22 23 24 25 26 27 28 29 30 31 32 33 34 35 36 37 38 39 40 41 42 43 44 45 46 47 48 49 50
000
ASUS43 KOAX 200602
RWRNE

WEATHER ROUNDUP FOR NEBRASKA
NATIONAL WEATHER SERVICE OMAHA NE
1200 AM CST MON FEB 20 2017

NOTES: SATELLITE DATA IS BEING USED TO AUGMENT CLOUD COVER ABOVE
       12000 FEET.
       "FAIR" INDICATES FEW OR NO CLOUDS BELOW 12,000 FEET WITH NO
       SIGNIFICANT WEATHER AND/OR OBSTRUCTIONS TO VISIBILITY.

  * THESE STATIONS DO NOT REPORT WEATHER SUCH AS RAIN...SNOW OR FOG.

NEZ001>004-019>022-054>056-200700-
NEBRASKA PANHANDLE

CITY           SKY/WX    TMP DP  RH WIND       PRES   REMARKS
SCOTTSBLUFF    CLOUDY    47  37  68 W18G33    29.66R
6HR MIN TEMP:  47; 6HR MAX TEMP:  54;

ALLIANCE       CLOUDY    42  34  73 W10       29.62R
6HR MIN TEMP:  41; 6HR MAX TEMP:  54;

CHADRON        CLOUDY    46  36  68 W9        29.61R
6HR MIN TEMP:  45; 6HR MAX TEMP:  59; 6HR PCP: TRACE;

KIMBALL        CLOUDY    47  37  68 NW29G36   29.70R
SIDNEY         PTCLDY    43  33  68 NW10      29.66R
6HR MIN TEMP:  43; 6HR MAX TEMP:  59;

$$

NEZ057>060-069>072-079>082-200700-
SOUTHWEST NEBRASKA

CITY           SKY/WX    TMP DP  RH WIND       PRES   REMARKS
NORTH PLATTE   MOCLDY    54  48  80 E5        29.67R
6HR MIN TEMP:  54; 6HR MAX TEMP:  66; 6HR PCP:  0.10;

IMPERIAL       PTCLDY    49  31  49 SE10      29.65R
6HR MIN TEMP:  49; 6HR MAX TEMP:  64;

LEXINGTON      CLOUDY    55  52  90 S17G25    29.68R FOG
MCCOOK         PTCLDY    54  50  86 S10       29.65F
6HR MIN TEMP:  54; 6HR MAX TEMP:  70;

OGALLALA       CLOUDY    50  33  52 SE8       29.63S
$$

NEZ005>010-023>029-035>040-094-200700-
NORTH CENTRAL NEBRASKA

CITY           SKY/WX    TMP DP  RH WIND       PRES   REMARKS
VALENTINE      PTCLDY    55  44  66 S16       29.60S
6HR MIN TEMP:  54; 6HR MAX TEMP:  61;

AINSWORTH      CLOUDY    55  49  81 S20G25    29.62S
BROKEN BOW     CLOUDY    55  52  89 S16G24    29.67S
6HR MIN TEMP:  55; 6HR MAX TEMP:  66;

O`NEILL        MOCLDY    55  51  86 S14G23    29.66F
ORD            CLOUDY    56  50  80 S16       29.68F
6HR MIN TEMP:  54; 6HR MAX TEMP:  66;

THEDFORD       CLOUDY    55  49  80 S10       29.66R
$$

NEZ041-046>049-061>064-073>077-083>087-200700-
SOUTH CENTRAL NEBRASKA

CITY           SKY/WX    TMP DP  RH WIND       PRES   REMARKS
GRAND ISLAND   PTCLDY    53  53 100 S14       29.72F
6HR MIN TEMP:  53; 6HR MAX TEMP:  61;

AURORA         CLOUDY    53  51  94 S13G18    29.74F
HASTINGS       CLOUDY    54  52  93 S12       29.73F
6HR MIN TEMP:  54; 6HR MAX TEMP:  61;

HEBRON         CLOUDY    56  53  88 SE12      29.76F
HOLDREGE       CLOUDY    55  52  90 S20G26    29.68F FOG
KEARNEY *      CLOUDY    55  52  88 S20       29.70F
YORK           CLOUDY    52  50  93 S10       29.76F
$$

NEZ011>018-030>034-042>045-200700-
NORTHEAST NEBRASKA

CITY           SKY/WX    TMP DP  RH WIND       PRES   REMARKS
NORFOLK        CLOUDY    53  49  86 S14       29.73F
6HR MIN TEMP:  53; 6HR MAX TEMP:  63;

ALBION         CLOUDY    55  51  86 S12       29.72F
BLAIR          CLOUDY    57  53  85 S10       29.80F
FREMONT        CLOUDY    55  51  89 SE9       29.78F
TEKAMAH        MOCLDY    52  50  93 SE7       29.79F
6HR MIN TEMP:  52; 6HR MAX TEMP:  61;

WAYNE          CLOUDY    52  51  95 S15       29.74F
$$

NEZ050>053-065>068-078-088>093-200700-
SOUTHEAST NEBRASKA

CITY           SKY/WX    TMP DP  RH WIND       PRES   REMARKS
LINCOLN        CLOUDY    58  53  84 S15       29.78F
6HR MIN TEMP:  55; 6HR MAX TEMP:  64;

OMAHA EPPLEY   CLOUDY    56  50  80 SE13      29.81F
6HR MIN TEMP:  56; 6HR MAX TEMP:  69;

BEATRICE       CLOUDY    60  55  84 S13       29.79F
FALLS CITY     CLOUDY    51  50  96 E5        29.83F FOG
6HR MIN TEMP:  51; 6HR MAX TEMP:  67;

NEBRASKA CITY  CLOUDY    53  51  92 S7        29.83F
PLATTSMOUTH    CLOUDY    56  50  80 S9        29.82S
$$

NEZ044-045-051>053-067-200700-
OMAHA AREA

CITY           SKY/WX    TMP DP  RH WIND       PRES   REMARKS
OMAHA EPPLEY   CLOUDY    56  50  80 SE13      29.81F
6HR MIN TEMP:  56; 6HR MAX TEMP:  69;

BLAIR          CLOUDY    57  53  85 S10       29.80F
FREMONT        CLOUDY    55  51  89 SE9       29.78F
MILLARD        CLOUDY    58  54  86 E5        29.81F
OFFUTT AFB     PTCLDY    58  58 100 SE9       29.81F
PLATTSMOUTH    CLOUDY    56  50  80 S9        29.82S
WAHOO          FAIR      53  51  92 S10       29.79F
$$




USA.gov is the U.S. government's official web portal to all federal, state and local government web resources and services.